"startDT [UTC]","vpos","CH4 [ppm]","stdev(CH4) [ppm]","CO2 [ppm]","stdev(CO2) [ppm]","H2O [ppm]","stdev(H2O)","p_LGR [torr]","T_LGR [C]","mt1_LGR [us]","mt2_LGR [us]","T_ECpre [C]","T_EC1 [C]","T_EC2 [C]","p_inlet [hPa]","p_in [hPa]","p_out [hPa]","T_inlet [C]","RH_inlet [%]","dwpt_inlet [C]","T_vent [C]","RH_vent [%]","dwpt_vent [C]","flow_vent [l min-1]","flow_inlet [l min-1]","dwpt_sample [C]","T_room [C]"
2012-07-28 00:00:00,0.0,1.8955,0.0011,385.17,0.39,49.5,35.1,138.05,31.69,24.65,36.49,0.95,16.26,-25.96,-48,546,-942,26.9,23.2,4.1,26.8,1.4,-30.3,5.73,2.45,-27.1,30.5
2012-07-28 00:01:00,0.0,1.8946,0.0009,385.19,0.31,53.5,31.7,138.05,31.69,24.66,36.49,0.92,16.36,-25.96,-48,546,-942,26.9,23.1,4.1,26.8,1.4,-30.3,5.73,2.45,-26.9,30.5
2012-07-28 00:02:00,0.0,1.8945,0.0009,385.30,0.38,49.5,29.4,138.05,31.69,24.66,36.50,0.93,16.45,-25.95,-48,546,-942,26.9,22.9,4.0,26.8,1.4,-30.4,5.73,2.45,-26.8,30.5
2012-07-28 00:03:00,0.0,1.8952,0.0011,385.84,0.26,49.4,32.8,138.05,31.69,24.65,36.49,0.95,16.54,-25.95,-48,546,-942,26.9,22.7,3.8,26.8,1.4,-30.3,5.73,2.45,-26.9,30.5
2012-07-28 00:04:00,0.0,1.8949,0.0009,385.72,0.34,57.6,31.0,138.05,31.69,24.65,36.49,0.96,16.62,-25.95,-48,546,-941,26.9,22.9,3.9,26.8,1.4,-30.3,5.73,2.45,-26.9,30.5
2012-07-28 00:05:00,0.0,1.8947,0.0009,385.69,0.29,54.8,27.4,138.05,31.69,24.65,36.49,0.94,16.69,-25.95,-48,546,-942,26.9,22.8,3.9,26.8,1.4,-30.3,5.73,2.45,-26.9,30.4
2012-07-28 00:06:00,0.0,1.8945,0.0011,385.72,0.37,45.2,31.7,138.05,31.69,24.65,36.49,0.93,16.77,-25.94,-48,546,-942,26.9,22.8,3.9,26.8,1.4,-30.3,5.73,2.45,-26.9,30.4
2012-07-28 00:07:00,0.0,1.8944,0.0011,385.82,0.31,50.5,31.2,138.05,31.69,24.65,36.50,0.95,16.85,-25.93,-48,546,-942,26.9,22.7,3.8,26.8,1.4,-30.3,5.73,2.45,-26.9,30.4
2012-07-28 00:08:00,0.0,1.8942,0.0010,385.99,0.28,51.0,31.8,138.05,31.69,24.66,36.49,0.95,16.91,-25.93,-48,546,-942,26.9,22.6,3.7,26.8,1.4,-30.3,5.73,2.45,-26.9,30.5
2012-07-28 00:09:00,0.0,1.8945,0.0009,386.07,0.32,53.4,30.9,138.05,31.69,24.65,36.49,0.94,16.98,-25.93,-48,546,-942,26.9,22.6,3.8,26.8,1.4,-30.3,5.73,2.45,-26.9,30.5
2012-07-28 00:10:00,0.0,1.8943,0.0008,385.80,0.31,49.6,28.1,138.05,31.69,24.66,36.49,0.97,17.04,-25.93,-48,546,-942,26.9,22.8,3.9,26.8,1.4,-30.4,5.73,2.45,-26.9,30.5
2012-07-28 00:11:00,0.0,1.8941,0.0010,385.37,0.34,51.9,37.7,138.05,31.70,24.66,36.50,0.96,17.11,-25.92,-48,546,-942,26.9,23.0,4.0,26.8,1.4,-30.3,5.73,2.45,-26.9,30.4
2012-07-28 00:12:00,0.0,1.8938,0.0013,385.67,0.30,53.8,33.8,138.05,31.70,24.66,36.50,0.95,17.16,-25.92,-48,546,-942,26.9,22.8,3.9,26.8,1.4,-30.4,5.73,2.45,-26.9,30.4
2012-07-28 00:13:00,0.0,1.8937,0.0011,385.70,0.36,46.9,26.9,138.05,31.70,24.66,36.49,0.95,17.21,-25.92,-48,546,-942,26.9,22.8,3.9,26.8,1.4,-30.3,5.73,2.46,-26.9,30.4
2012-07-28 00:14:00,0.0,1.8946,0.0011,385.33,0.27,50.0,26.9,138.05,31.70,24.65,36.50,0.95,17.27,-25.91,-48,546,-942,26.9,22.9,4.0,26.8,1.4,-30.3,5.73,2.46,-26.9,30.5
2012-07-28 00:15:00,0.0,1.8947,0.0009,385.24,0.43,51.3,29.6,138.05,31.70,24.65,36.50,0.94,17.32,-25.91,-48,546,-942,26.9,22.9,4.0,26.8,1.4,-30.4,5.73,2.46,-26.9,30.4
2012-07-28 00:16:00,0.0,1.8938,0.0011,385.59,0.34,52.2,25.5,138.05,31.70,24.66,36.49,0.95,17.37,-25.91,-48,546,-942,26.9,22.6,3.8,26.8,1.4,-30.3,5.73,2.46,-26.9,30.4
2012-07-28 00:17:00,0.0,1.8940,0.0011,385.78,0.29,45.1,26.4,138.05,31.70,24.66,36.49,0.94,17.41,-25.91,-48,546,-941,26.9,22.5,3.7,26.9,1.4,-30.3,5.73,2.46,-26.9,30.5
2012-07-28 00:18:00,0.0,1.8939,0.0010,385.43,0.33,46.7,31.1,138.05,31.70,24.66,36.50,0.96,17.46,-25.91,-48,546,-941,26.9,22.5,3.7,26.9,1.4,-30.3,5.73,2.45,-26.9,30.5
2012-07-28 00:19:00,0.0,1.8941,0.0010,385.32,0.30,46.2,28.6,138.05,31.70,24.66,36.49,0.94,17.51,-25.90,-48,546,-941,26.9,22.7,3.8,26.8,1.4,-30.3,5.73,2.46,-26.9,30.4
2012-07-28 00:20:00,0.0,1.8940,0.0010,385.92,0.30,55.9,28.0,138.05,31.70,24.65,36.50,0.95,17.55,-25.90,-48,546,-941,26.9,22.6,3.8,26.8,1.4,-30.3,5.73,2.46,-26.9,30.5
2012-07-28 00:21:00,0.0,1.8945,0.0011,385.59,0.30,56.2,33.1,138.05,31.71,24.66,36.50,0.97,17.58,-25.90,-48,546,-941,26.9,22.9,3.9,26.8,1.4,-30.4,5.73,2.45,-26.9,30.4
2012-07-28 00:22:00,0.0,1.8952,0.0008,385.44,0.35,52.3,32.8,138.05,31.71,24.66,36.50,0.96,17.62,-25.89,-49,546,-941,26.9,23.4,4.3,26.9,1.4,-30.4,5.73,2.45,-26.9,30.4
2012-07-28 00:23:00,0.0,1.8955,0.0011,385.61,0.30,42.4,30.1,138.05,31.71,24.65,36.50,0.94,17.66,-25.89,-48,546,-941,26.9,23.0,4.1,26.8,1.4,-30.3,5.73,2.45,-27.0,30.4
2012-07-28 00:24:00,0.0,1.8949,0.0010,385.58,0.31,44.2,30.6,138.05,31.71,24.66,36.49,0.94,17.69,-25.89,-48,546,-941,26.9,23.0,4.1,26.8,1.4,-30.5,5.73,2.45,-26.9,30.5
2012-07-28 00:25:00,0.0,1.8949,0.0011,385.76,0.34,46.8,26.2,138.05,31.71,24.65,36.50,0.95,17.72,-25.89,-48,546,-941,26.9,22.8,3.9,26.8,1.4,-30.4,5.73,2.46,-27.0,30.5
2012-07-28 00:26:00,0.0,1.8951,0.0009,385.65,0.33,51.8,31.2,138.05,31.71,24.65,36.49,0.95,17.75,-25.89,-48,546,-941,26.9,23.0,4.0,26.8,1.4,-30.6,5.73,2.45,-27.0,30.4
2012-07-28 00:27:00,0.0,1.8944,0.0010,385.70,0.34,48.5,28.4,138.05,31.71,24.66,36.50,0.95,17.78,-25.89,-49,546,-941,26.9,23.3,4.2,26.8,1.4,-30.5,5.73,2.45,-27.0,30.4
2012-07-28 00:28:00,0.0,1.8943,0.0008,385.72,0.28,52.2,31.9,138.05,31.71,24.66,36.50,0.95,17.81,-25.88,-48,546,-941,26.9,23.0,4.1,26.8,1.4,-30.5,5.73,2.45,-27.0,30.3
2012-07-28 00:29:00,0.0,1.8944,0.0009,385.69,0.40,51.3,26.4,138.05,31.71,24.65,36.49,0.94,17.84,-25.88,-48,546,-941,26.9,22.8,3.9,26.8,1.4,-30.5,5.73,2.45,-27.0,30.3
2012-07-28 00:30:00,0.0,1.8946,0.0013,385.78,0.29,45.4,29.8,138.05,31.71,24.65,36.50,0.96,17.86,-25.88,-48,546,-941,26.9,22.8,3.9,26.8,1.4,-30.5,5.73,2.46,-27.0,30.4
2012-07-28 00:31:00,0.0,1.8941,0.0008,385.84,0.24,47.0,29.6,138.05,31.71,24.66,36.50,0.94,17.89,-25.88,-48,546,-941,26.9,22.5,3.7,26.8,1.4,-30.5,5.73,2.46,-27.0,30.4
2012-07-28 00:32:00,0.0,1.8939,0.0011,385.83,0.31,51.3,30.7,138.05,31.71,24.66,36.50,0.97,17.92,-25.88,-48,546,-941,26.9,22.7,3.8,26.8,1.4,-30.5,5.73,2.46,-27.0,30.4
2012-07-28 00:33:00,0.0,1.8933,0.0010,385.79,0.29,48.5,30.6,138.05,31.71,24.66,36.50,0.95,17.94,-25.88,-48,546,-940,26.9,22.8,3.9,26.8,1.4,-30.5,5.73,2.45,-27.0,30.4
2012-07-28 00:34:00,0.0,1.8934,0.0010,385.43,0.44,58.8,31.7,138.05,31.71,24.65,36.50,0.96,17.96,-25.88,-49,546,-941,26.9,23.0,4.0,26.8,1.4,-30.5,5.73,2.45,-27.0,30.5
2012-07-28 00:35:00,0.0,1.8931,0.0011,385.80,0.32,50.8,33.6,138.05,31.71,24.66,36.50,0.94,17.98,-25.87,-48,546,-941,26.9,22.6,3.8,26.8,1.4,-30.5,5.73,2.45,-27.0,30.4
2012-07-28 00:36:00,0.0,1.8934,0.0009,385.83,0.34,46.7,31.2,138.05,31.72,24.65,36.50,0.96,18.00,-25.88,-48,546,-941,27.0,22.5,3.7,26.9,1.4,-30.5,5.73,2.46,-27.0,30.4
2012-07-28 00:37:00,0.0,1.8931,0.0010,385.78,0.32,55.2,26.6,138.05,31.72,24.65,36.50,0.94,18.02,-25.87,-48,546,-941,26.9,22.8,3.9,26.9,1.4,-30.5,5.73,2.45,-27.0,30.4
2012-07-28 00:38:00,0.0,1.8927,0.0009,385.81,0.35,57.4,33.4,138.05,31.72,24.65,36.49,0.95,18.03,-25.87,-48,547,-941,26.9,22.6,3.8,26.8,1.4,-30.5,5.73,2.46,-27.0,30.4
2012-07-28 00:39:00,0.0,1.8921,0.0010,385.83,0.37,51.1,29.2,138.05,31.72,24.66,36.49,0.95,18.05,-25.88,-48,547,-941,26.9,22.9,4.0,26.8,1.4,-30.6,5.73,2.45,-27.0,30.4
2012-07-28 00:40:00,0.0,1.8914,0.0010,385.84,0.29,54.3,30.3,138.05,31.72,24.66,36.50,0.95,18.07,-25.88,-48,547,-941,26.9,23.1,4.1,26.8,1.4,-30.5,5.73,2.45,-27.0,30.4
2012-07-28 00:41:00,0.0,1.8901,0.0011,386.00,0.30,50.7,26.1,138.05,31.72,24.66,36.49,0.94,18.09,-25.87,-49,547,-941,26.9,23.1,4.1,26.8,1.4,-30.6,5.73,2.46,-27.0,30.5
2012-07-28 00:42:00,0.0,1.8898,0.0009,386.05,0.34,52.1,30.3,138.05,31.72,24.66,36.50,0.95,18.10,-25.87,-48,547,-941,27.0,22.8,3.9,26.9,1.4,-30.5,5.73,2.46,-27.0,30.5
2012-07-28 00:43:00,0.0,1.8899,0.0009,385.95,0.38,49.1,31.3,138.05,31.72,24.65,36.50,0.95,18.12,-25.87,-49,547,-941,27.0,23.2,4.2,26.8,1.4,-30.5,5.73,2.46,-27.0,30.5
2012-07-28 00:44:00,0.0,1.8896,0.0009,385.93,0.32,48.5,28.2,138.05,31.72,24.65,36.50,0.97,18.14,-25.86,-49,547,-941,26.9,23.0,4.0,26.9,1.4,-30.5,5.73,2.46,-27.0,30.4
2012-07-28 00:45:00,0.0,1.8892,0.0010,386.17,0.28,50.7,31.9,138.05,31.72,24.65,36.49,0.95,18.15,-25.86,-49,547,-941,26.9,22.8,3.9,26.9,1.4,-30.5,5.73,2.45,-27.0,30.4
2012-07-28 00:46:00,0.0,1.8892,0.0009,386.07,0.31,43.7,29.8,138.05,31.72,24.66,36.50,0.96,18.16,-25.86,-49,546,-941,26.9,22.7,3.9,26.9,1.4,-30.5,5.73,2.46,-27.0,30.4
2012-07-28 00:47:00,0.0,1.8890,0.0009,386.33,0.36,54.7,29.7,138.05,31.72,24.66,36.49,1.08,18.05,-25.86,-49,547,-941,26.9,22.8,3.9,26.9,1.4,-30.5,5.73,2.46,-27.0,30.4
2012-07-28 00:48:00,0.0,1.8889,0.0009,386.15,0.32,54.7,32.2,138.05,31.72,24.66,36.49,1.09,16.62,-25.86,-49,547,-941,26.9,23.2,4.2,26.9,1.4,-30.5,5.73,2.46,-27.0,30.4
2012-07-28 00:49:00,0.0,1.8888,0.0010,386.07,0.35,51.9,29.7,138.05,31.72,24.65,36.49,1.00,14.38,-25.86,-49,547,-941,26.9,22.9,4.0,26.8,1.4,-30.4,5.73,2.46,-27.0,30.4
2012-07-28 00:50:00,0.0,1.8886,0.0010,386.16,0.29,46.4,30.0,138.05,31.72,24.65,36.50,1.10,12.05,-25.86,-49,547,-941,26.9,22.7,3.9,26.8,1.4,-30.3,5.73,2.45,-27.0,30.4
2012-07-28 00:51:00,0.0,1.8885,0.0011,386.18,0.33,52.5,28.4,138.05,31.72,24.66,36.49,1.06,9.75,-25.85,-49,547,-941,26.9,23.0,4.0,26.9,1.4,-30.3,5.73,2.46,-27.0,30.4
2012-07-28 00:52:00,0.0,1.8883,0.0010,386.32,0.27,45.1,28.4,138.05,31.72,24.66,36.49,1.00,7.53,-25.84,-49,547,-941,26.9,23.0,4.0,26.8,1.4,-30.3,5.73,2.46,-27.0,30.4
2012-07-28 00:53:00,0.0,1.8883,0.0010,386.37,0.31,55.1,29.9,138.05,31.72,24.65,36.50,1.07,5.40,-25.83,-49,547,-941,26.9,22.9,3.9,26.8,1.4,-30.4,5.73,2.45,-27.0,30.4
2012-07-28 00:54:00,0.0,1.8878,0.0008,386.23,0.33,46.2,28.8,138.05,31.72,24.66,36.50,1.10,3.38,-25.81,-49,547,-941,26.9,22.9,4.0,26.8,1.4,-30.3,5.73,2.45,-27.1,30.3
2012-07-28 00:55:00,0.0,1.8881,0.0010,386.21,0.34,48.3,29.6,138.05,31.72,24.65,36.50,0.99,1.46,-25.79,-49,547,-941,26.9,22.6,3.7,26.8,1.4,-30.3,5.73,2.46,-27.1,30.3
2012-07-28 00:56:00,0.0,1.8876,0.0010,386.31,0.32,40.2,29.1,138.05,31.71,24.66,36.49,1.08,-0.20,-25.77,-49,547,-941,26.9,22.8,3.9,26.8,1.4,-30.3,5.73,2.46,-27.1,30.3
2012-07-28 00:57:00,0.0,1.8874,0.0011,386.30,0.31,42.5,27.1,138.05,31.71,24.66,36.50,1.07,-1.93,-25.76,-49,547,-941,26.9,23.1,4.0,26.8,1.4,-30.3,5.73,2.47,-27.1,30.3
2012-07-28 00:58:00,0.0,1.8874,0.0009,386.44,0.29,55.0,34.2,138.05,31.71,24.65,36.50,0.99,-3.10,-25.74,-49,547,-941,26.9,22.6,3.7,26.8,1.4,-30.2,5.73,2.47,-27.1,30.3
2012-07-28 00:59:00,0.0,1.8878,0.0011,386.36,0.32,49.3,32.3,138.05,31.71,24.65,36.49,1.08,-4.40,-25.72,-49,547,-941,26.9,22.7,3.8,26.8,1.4,-30.1,5.73,2.47,-27.1,30.3
2012-07-28 01:00:00,0.0,1.8877,0.0011,386.44,0.33,42.5,33.2,138.05,31.71,24.66,36.49,1.08,-6.05,-25.72,-49,547,-940,26.9,22.7,3.8,26.8,1.4,-30.1,5.73,2.47,-27.1,30.3
2012-07-28 01:01:00,0.0,1.8877,0.0010,386.17,0.37,45.5,35.6,138.05,31.71,24.65,36.50,0.98,-7.42,-25.71,-49,547,-940,26.9,23.0,4.0,26.8,1.4,-30.2,5.73,2.47,-27.1,30.2
2012-07-28 01:02:00,0.0,1.8877,0.0011,386.37,0.36,44.1,29.3,138.05,31.70,24.66,36.50,1.03,-8.71,-25.69,-49,547,-941,26.9,23.1,4.0,26.8,1.4,-30.1,5.73,2.46,-27.1,30.2
2012-07-28 01:03:00,0.0,1.8876,0.0010,386.24,0.24,52.6,27.1,138.05,31.70,24.65,36.49,1.09,-9.82,-25.69,-49,547,-940,26.9,22.9,3.9,26.8,1.4,-30.1,5.73,2.46,-27.1,30.3
2012-07-28 01:04:00,0.0,1.8876,0.0009,386.41,0.27,35.8,28.8,138.05,31.70,24.66,36.49,1.03,-10.95,-25.69,-49,547,-940,26.9,22.9,3.9,26.8,1.4,-30.2,5.73,2.45,-27.1,30.3
2012-07-28 01:05:00,0.0,1.8880,0.0011,386.52,0.32,45.2,29.9,138.05,31.70,24.65,36.49,0.99,-12.06,-25.69,-49,547,-940,26.9,22.7,3.8,26.8,1.4,-30.1,5.73,2.45,-27.1,30.3
2012-07-28 01:06:00,0.0,1.8882,0.0009,386.46,0.26,47.1,31.3,138.05,31.70,24.65,36.49,1.06,-13.06,-25.68,-49,547,-940,26.9,22.6,3.7,26.8,1.4,-30.2,5.73,2.46,-27.1,30.3
2012-07-28 01:07:00,0.0,1.8879,0.0009,386.40,0.34,47.8,29.6,138.05,31.70,24.66,36.49,1.08,-14.00,-25.68,-49,547,-940,26.9,22.9,3.9,26.8,1.4,-30.2,5.73,2.47,-27.1,30.3
2012-07-28 01:08:00,0.0,1.8875,0.0009,386.15,0.27,44.0,28.5,138.05,31.69,24.66,36.50,0.98,-14.88,-25.68,-49,547,-940,26.9,22.9,3.9,26.8,1.4,-30.2,5.73,2.47,-27.1,30.2
2012-07-28 01:09:00,0.0,1.8878,0.0009,386.15,0.28,40.8,29.3,138.05,31.69,24.66,36.50,1.00,-15.69,-25.68,-49,547,-941,26.9,22.8,3.9,26.8,1.4,-30.1,5.73,2.47,-27.1,30.2
2012-07-28 01:10:00,0.0,1.8878,0.0010,386.27,0.34,47.2,25.9,138.05,31.69,24.66,36.50,1.07,-16.45,-25.68,-49,547,-941,26.9,22.9,3.9,26.8,1.4,-30.1,5.73,2.47,-27.1,30.3
2012-07-28 01:11:00,0.0,1.8875,0.0010,386.44,0.37,49.3,32.0,138.05,31.69,24.66,36.50,1.07,-17.21,-25.69,-49,547,-941,26.9,22.7,3.8,26.8,1.4,-30.2,5.73,2.47,-27.1,30.3
2012-07-28 01:12:00,0.0,1.8878,0.0010,386.53,0.30,45.1,27.5,138.05,31.69,24.65,36.50,0.98,-17.93,-25.69,-49,547,-941,26.9,22.5,3.7,26.8,1.4,-30.2,5.73,2.47,-27.1,30.3
2012-07-28 01:13:00,0.0,1.8878,0.0012,386.37,0.27,50.4,30.4,138.05,31.69,24.65,36.50,1.01,-18.60,-25.70,-49,547,-941,26.9,22.7,3.8,26.8,1.4,-30.1,5.73,2.46,-27.1,30.3
2012-07-28 01:14:00,0.0,1.8875,0.0011,386.47,0.33,47.4,27.0,138.05,31.69,24.65,36.50,1.07,-19.24,-25.70,-49,547,-941,26.9,22.8,3.9,26.8,1.4,-30.1,5.73,2.46,-27.1,30.3
2012-07-28 01:15:00,0.0,1.8874,0.0010,386.39,0.27,51.4,30.4,138.05,31.69,24.66,36.49,1.06,-19.83,-25.71,-49,547,-940,26.9,22.9,3.9,26.8,1.4,-30.2,5.73,2.46,-27.1,30.3
2012-07-28 01:16:00,0.0,1.8877,0.0011,386.27,0.38,52.3,30.8,138.05,31.69,24.66,36.49,0.99,-20.40,-25.72,-49,547,-940,26.9,22.8,3.9,26.8,1.4,-30.2,5.73,2.46,-27.1,30.3
2012-07-28 01:17:00,0.0,1.8877,0.0010,386.22,0.26,50.2,30.7,138.05,31.69,24.65,36.50,0.99,-20.93,-25.73,-49,547,-941,26.9,22.8,3.9,26.8,1.4,-30.1,5.73,2.47,-27.1,30.2
2012-07-28 01:18:00,0.0,1.8879,0.0011,386.29,0.30,50.0,30.8,138.05,31.69,24.66,36.50,1.06,-21.43,-25.74,-49,547,-941,26.9,22.6,3.7,26.8,1.4,-30.2,5.73,2.47,-27.1,30.2
2012-07-28 01:19:00,0.0,1.8877,0.0010,386.40,0.35,48.2,30.6,138.05,31.69,24.65,36.49,1.06,-21.91,-25.74,-49,547,-941,26.9,22.7,3.8,26.8,1.4,-30.2,5.73,2.47,-27.1,30.2
2012-07-28 01:20:00,0.0,1.8874,0.0009,386.45,0.32,47.5,29.0,138.05,31.68,24.66,36.49,0.99,-22.36,-25.75,-49,547,-941,26.9,22.5,3.7,26.8,1.4,-30.3,5.73,2.47,-27.1,30.3
2012-07-28 01:21:00,0.0,1.8875,0.0009,386.42,0.41,52.0,29.0,138.05,31.68,24.66,36.49,0.99,-22.78,-25.75,-49,547,-941,26.9,22.7,3.8,26.8,1.4,-30.4,5.73,2.47,-27.1,30.3
2012-07-28 01:22:00,0.0,1.8873,0.0011,386.33,0.35,51.0,30.1,138.05,31.68,24.66,36.49,1.06,-23.17,-25.76,-49,547,-940,26.9,22.7,3.8,26.8,1.4,-30.3,5.73,2.47,-27.1,30.4
2012-07-28 01:23:00,0.0,1.8875,0.0009,386.15,0.32,42.9,23.8,138.05,31.68,24.66,36.50,1.07,-23.55,-25.77,-49,547,-941,26.9,22.7,3.8,26.8,1.4,-30.4,5.73,2.47,-27.1,30.3
2012-07-28 01:24:00,0.0,1.8880,0.0010,386.21,0.34,48.0,27.3,138.05,31.68,24.65,36.49,1.00,-23.91,-25.78,-49,547,-941,26.9,22.6,3.7,26.8,1.4,-30.3,5.73,2.46,-27.0,30.3
2012-07-28 01:25:00,0.0,1.8879,0.0009,386.60,0.32,46.6,27.8,138.05,31.68,24.66,36.49,0.98,-24.24,-25.78,-49,547,-941,26.9,22.5,3.7,26.8,1.4,-30.3,5.73,2.46,-27.0,30.3
2012-07-28 01:26:00,0.0,1.8879,0.0012,386.44,0.28,35.6,28.3,138.05,31.68,24.66,36.49,1.03,-24.56,-25.79,-49,547,-941,26.9,22.3,3.6,26.8,1.4,-30.3,5.73,2.45,-27.1,30.3
2012-07-28 01:27:00,0.0,1.8874,0.0009,386.04,0.29,47.5,31.0,138.05,31.68,24.66,36.50,1.08,-24.86,-25.80,-49,547,-940,26.9,22.7,3.8,26.8,1.4,-30.3,5.73,2.46,-27.1,30.4
2012-07-28 01:28:00,0.0,1.8877,0.0010,386.31,0.29,57.4,32.3,138.05,31.68,24.66,36.49,1.02,-25.14,-25.81,-49,547,-940,26.9,22.8,3.8,26.8,1.4,-30.3,5.73,2.47,-27.0,30.4
2012-07-28 01:29:00,0.0,1.8881,0.0010,386.11,0.32,48.2,30.8,138.05,31.68,24.65,36.50,0.97,-25.39,-25.82,-49,547,-941,26.9,22.9,3.9,26.8,1.4,-30.3,5.73,2.47,-27.0,30.4
2012-07-28 01:30:00,0.0,1.8881,0.0008,386.44,0.32,47.6,30.0,138.05,31.68,24.65,36.49,1.00,-25.63,-25.83,-49,547,-941,26.9,22.7,3.8,26.8,1.4,-30.4,5.73,2.47,-27.0,30.4
2012-07-28 01:31:00,0.0,1.8883,0.0011,386.26,0.34,52.3,30.6,138.05,31.68,24.65,36.49,0.94,-25.73,-25.83,-49,547,-941,26.9,22.7,3.8,26.8,1.4,-30.5,5.73,2.47,-27.0,30.5
2012-07-28 01:32:00,0.0,1.8874,0.0009,386.48,0.33,51.0,29.3,138.05,31.69,24.66,36.49,1.06,-25.50,-25.83,-49,547,-941,26.9,22.5,3.7,26.8,1.4,-30.5,5.73,2.47,-27.0,30.5
2012-07-28 01:33:00,0.0,1.8879,0.0011,386.36,0.26,54.4,28.8,138.05,31.68,24.66,36.50,1.07,-25.64,-25.84,-49,547,-940,26.9,22.6,3.8,26.8,1.4,-30.5,5.73,2.47,-27.0,30.4
2012-07-28 01:34:00,0.0,1.8879,0.0010,386.26,0.35,57.8,30.7,138.05,31.68,24.65,36.50,0.94,-25.78,-25.85,-49,547,-940,26.9,22.6,3.8,26.9,1.4,-30.5,5.73,2.46,-27.0,30.4
2012-07-28 01:35:00,0.0,1.8882,0.0010,386.16,0.34,50.4,35.0,138.05,31.68,24.65,36.50,0.99,-25.53,-25.85,-49,547,-941,26.9,22.9,4.0,26.9,1.4,-30.5,5.73,2.46,-27.0,30.4
2012-07-28 01:36:00,0.0,1.8880,0.0011,386.24,0.33,57.0,31.2,138.05,31.68,24.66,36.50,1.01,-25.62,-25.86,-49,547,-941,26.9,22.7,3.8,26.9,1.4,-30.5,5.73,2.46,-27.0,30.5
2012-07-28 01:37:00,0.0,1.8880,0.0011,386.24,0.36,56.3,32.2,138.05,31.68,24.66,36.50,1.04,-25.81,-25.88,-49,547,-941,26.9,22.7,3.9,26.9,1.4,-30.5,5.73,2.46,-27.0,30.4
2012-07-28 01:38:00,0.0,1.8878,0.0009,386.43,0.32,50.5,29.9,138.05,31.68,24.66,36.49,1.06,-25.58,-25.88,-49,547,-940,26.9,22.5,3.8,26.9,1.4,-30.5,5.73,2.46,-27.0,30.4
2012-07-28 01:39:00,0.0,1.8879,0.0010,386.30,0.39,56.7,33.2,138.05,31.69,24.66,36.50,0.99,-25.61,-25.89,-49,548,-940,26.9,22.5,3.8,26.9,1.4,-30.5,5.73,2.46,-27.0,30.4
2012-07-28 01:40:00,0.0,1.8875,0.0009,386.44,0.33,58.2,29.1,138.05,31.69,24.66,36.49,0.97,-25.81,-25.90,-49,548,-941,26.9,22.3,3.6,26.9,1.4,-30.5,5.73,2.46,-27.0,30.4
2012-07-28 01:41:00,0.0,1.8879,0.0008,386.38,0.28,56.1,33.3,138.05,31.69,24.66,36.49,1.01,-25.67,-25.90,-49,547,-941,26.9,22.7,3.8,26.9,1.4,-30.5,5.73,2.46,-27.0,30.4
2012-07-28 01:42:00,0.0,1.8881,0.0009,386.48,0.28,43.1,30.8,138.05,31.69,24.65,36.49,1.05,-25.61,-25.91,-49,548,-941,27.0,22.7,3.9,26.9,1.4,-30.5,5.73,2.47,-27.0,30.4
2012-07-28 01:43:00,0.0,1.8879,0.0009,386.28,0.27,44.5,27.8,138.05,31.69,24.65,36.49,1.07,-25.80,-25.92,-49,548,-940,27.0,23.1,4.1,26.9,1.4,-30.5,5.73,2.47,-27.0,30.4
2012-07-28 01:44:00,0.0,1.8876,0.0011,386.22,0.41,54.6,31.4,138.05,31.69,24.66,36.49,0.97,-25.75,-25.92,-49,548,-941,27.0,22.6,3.8,26.9,1.4,-30.5,5.73,2.47,-27.0,30.3
2012-07-28 01:45:00,0.0,1.8878,0.0010,386.31,0.26,48.7,29.4,138.05,31.69,24.66,36.50,1.02,-25.61,-25.93,-49,548,-941,27.0,22.6,3.8,26.9,1.4,-30.5,5.73,2.46,-27.0,30.4
2012-07-28 01:46:00,0.0,1.8876,0.0011,386.11,0.31,55.2,37.5,138.05,31.69,24.66,36.50,0.92,-25.78,-25.85,-49,548,-941,27.0,22.7,3.9,26.9,1.4,-30.5,5.73,2.46,-27.0,30.4
2012-07-28 01:47:00,0.0,1.8879,0.0009,386.45,0.29,59.1,31.7,138.05,31.69,24.66,36.50,0.98,-26.00,-24.64,-49,548,-940,27.0,22.1,3.5,26.9,1.4,-30.3,5.73,2.47,-27.0,30.4
2012-07-28 01:48:00,0.0,1.8886,0.0010,386.30,0.42,61.8,34.7,138.05,31.69,24.65,36.49,0.90,-26.15,-22.73,-49,548,-941,27.0,22.6,3.8,26.9,1.5,-29.1,5.73,2.46,-27.0,30.4
2012-07-28 01:49:00,0.0,1.8883,0.0009,386.16,0.33,58.2,32.1,138.04,31.69,24.66,36.50,0.81,-26.24,-20.76,-49,548,-941,27.0,22.6,3.8,26.9,1.7,-28.2,5.73,2.46,-27.0,30.3
2012-07-28 01:50:00,0.0,1.8884,0.0010,386.19,0.32,61.4,30.7,138.04,31.70,24.66,36.50,0.87,-26.29,-18.85,-49,548,-941,27.0,22.7,3.9,26.9,1.8,-27.7,5.73,2.46,-27.0,30.4
2012-07-28 01:51:00,0.0,1.8892,0.0009,386.15,0.32,52.6,31.8,138.04,31.70,24.66,36.50,0.89,-26.31,-17.02,-49,548,-940,27.0,22.5,3.8,26.9,1.8,-27.7,5.73,2.46,-27.0,30.4
2012-07-28 01:52:00,0.0,1.8895,0.0009,386.08,0.35,59.7,30.0,138.04,31.70,24.66,36.50,0.94,-26.32,-15.29,-49,548,-941,27.0,22.5,3.7,26.9,1.8,-27.7,5.73,2.46,-27.0,30.4
2012-07-28 01:53:00,0.0,1.8893,0.0011,386.12,0.31,44.0,30.4,138.04,31.70,24.66,36.50,0.95,-26.31,-13.65,-49,548,-941,27.0,22.8,4.0,26.9,1.7,-27.9,5.73,2.46,-27.0,30.4
2012-07-28 01:54:00,0.0,1.8894,0.0010,386.06,0.30,59.4,32.5,138.05,31.70,24.66,36.50,0.91,-26.31,-12.10,-49,548,-941,27.0,22.7,3.9,26.9,1.7,-28.0,5.73,2.46,-27.0,30.5
2012-07-28 01:55:00,0.0,1.8895,0.0010,386.35,0.29,60.9,28.4,138.04,31.70,24.65,36.50,0.86,-26.29,-10.63,-49,548,-940,27.0,22.2,3.6,27.0,1.7,-28.2,5.73,2.47,-27.0,30.6
2012-07-28 01:56:00,0.0,1.8897,0.0010,386.22,0.38,55.5,29.4,138.04,31.70,24.65,36.49,0.84,-26.28,-9.24,-49,548,-941,27.0,22.7,3.9,27.0,1.7,-28.3,5.73,2.47,-27.0,30.5
2012-07-28 01:57:00,0.0,1.8897,0.0010,386.13,0.27,58.0,29.4,138.04,31.70,24.66,36.50,0.89,-26.27,-7.93,-49,548,-941,27.0,22.7,3.9,27.0,1.6,-28.5,5.73,2.47,-27.0,30.5
2012-07-28 01:58:00,0.0,1.8901,0.0011,385.97,0.28,58.5,27.5,138.04,31.70,24.66,36.49,0.93,-26.25,-6.67,-49,548,-941,27.0,22.9,4.1,27.0,1.6,-28.5,5.73,2.47,-27.0,30.5
2012-07-28 01:59:00,0.0,1.8904,0.0009,386.27,0.32,61.0,29.2,138.04,31.70,24.66,36.50,0.95,-26.24,-5.49,-49,548,-940,27.1,22.7,4.0,27.0,1.6,-28.7,5.73,2.47,-27.0,30.5
2012-07-28 02:00:00,0.0,1.8907,0.0010,386.09,0.33,57.3,31.1,138.04,31.71,24.65,36.50,0.96,-26.22,-4.36,-49,548,-941,27.0,22.9,4.1,27.0,1.6,-28.7,5.73,2.47,-26.9,30.5
2012-07-28 02:01:00,0.0,1.8906,0.0011,386.35,0.35,57.4,25.1,138.04,31.71,24.65,36.49,0.96,-26.21,-3.29,-49,548,-941,27.1,22.6,3.9,27.0,1.6,-28.9,5.73,2.47,-26.9,30.6
2012-07-28 02:02:00,0.0,1.8908,0.0012,386.26,0.37,55.8,35.7,138.04,31.71,24.66,36.49,0.90,-26.19,-2.27,-49,548,-941,27.1,22.6,3.9,27.0,1.6,-28.9,5.73,2.47,-26.9,30.5
2012-07-28 02:03:00,0.0,1.8903,0.0011,386.32,0.25,70.8,29.9,138.04,31.70,24.65,36.49,0.87,-26.18,-1.31,-49,548,-940,27.1,22.1,3.6,27.0,1.6,-29.0,5.73,2.47,-26.9,30.5
2012-07-28 02:04:00,0.0,1.8897,0.0012,386.00,0.31,62.9,29.8,138.04,31.70,24.66,36.50,0.86,-26.16,-0.39,-49,548,-941,27.1,22.6,3.9,27.0,1.6,-29.1,5.73,2.46,-26.9,30.5
2012-07-28 02:05:00,0.0,1.8899,0.0009,386.17,0.31,66.7,32.3,138.04,31.70,24.66,36.50,0.90,-26.15,0.48,-49,548,-941,27.1,22.2,3.7,27.0,1.5,-29.1,5.73,2.46,-26.9,30.5
2012-07-28 02:06:00,0.0,1.8896,0.0010,386.36,0.32,57.7,30.5,138.04,31.71,24.65,36.50,0.93,-26.14,1.29,-49,548,-941,27.1,22.5,3.9,27.0,1.5,-29.2,5.73,2.47,-26.9,30.5
2012-07-28 02:07:00,0.0,1.8896,0.0010,386.09,0.23,60.7,35.2,138.04,31.71,24.66,36.50,0.94,-26.12,2.05,-49,548,-940,27.1,22.9,4.1,27.0,1.5,-29.2,5.73,2.47,-26.8,30.6
2012-07-28 02:08:00,0.0,1.8899,0.0009,386.21,0.30,59.2,26.8,138.04,31.71,24.65,36.50,0.96,-26.11,2.72,-49,548,-941,27.1,22.5,3.9,27.0,1.5,-29.3,5.73,2.47,-26.8,30.5
2012-07-28 02:09:00,0.0,1.8897,0.0009,386.04,0.35,70.3,31.3,138.04,31.71,24.66,36.50,0.95,-26.10,3.15,-49,548,-941,27.1,22.7,4.0,27.0,1.5,-29.2,5.73,2.48,-26.8,30.6
2012-07-28 02:10:00,0.0,1.8895,0.0011,385.89,0.34,66.9,29.6,138.04,31.71,24.66,36.50,0.96,-26.08,3.33,-49,548,-941,27.1,22.8,4.0,27.0,1.5,-29.4,5.73,2.48,-26.8,30.5
2012-07-28 02:11:00,0.0,1.8898,0.0012,385.85,0.33,71.7,30.0,138.04,31.72,24.66,36.50,0.96,-26.07,3.60,-49,548,-941,27.1,22.7,4.0,27.0,1.5,-29.4,5.73,2.47,-26.8,30.6
2012-07-28 02:12:00,0.0,1.8905,0.0010,385.98,0.32,61.7,30.2,138.04,31.72,24.65,36.49,0.93,-26.06,4.06,-49,548,-941,27.1,22.9,4.1,27.0,1.5,-29.4,5.73,2.47,-26.8,30.5
2012-07-28 02:13:00,0.0,1.8897,0.0010,386.18,0.36,67.3,32.3,138.04,31.72,24.65,36.50,0.92,-26.05,4.65,-49,548,-941,27.1,22.5,3.9,27.1,1.5,-29.4,5.73,2.48,-26.8,30.5
2012-07-28 02:14:00,0.0,1.8893,0.0010,386.04,0.40,70.7,31.8,138.04,31.72,24.66,36.49,0.90,-26.04,5.23,-49,548,-941,27.2,22.7,4.0,27.1,1.5,-29.4,5.73,2.48,-26.8,30.5
2012-07-28 02:15:00,0.0,1.8895,0.0009,386.10,0.30,79.1,31.5,138.04,31.73,24.66,36.50,0.91,-26.03,5.79,-49,548,-941,27.1,22.5,3.9,27.1,1.5,-29.4,5.73,2.48,-26.8,30.6
2012-07-28 02:16:00,0.0,1.8895,0.0008,386.17,0.30,71.3,34.3,138.04,31.73,24.65,36.50,0.92,-26.03,6.30,-49,548,-941,27.2,22.9,4.2,27.1,1.5,-29.4,5.73,2.48,-26.8,30.6
2012-07-28 02:17:00,0.0,1.8891,0.0010,386.03,0.29,72.1,27.2,138.04,31.72,24.66,36.50,0.93,-26.01,6.80,-49,548,-941,27.1,22.8,4.1,27.1,1.5,-29.3,5.73,2.48,-26.8,30.6
2012-07-28 02:18:00,0.0,1.8890,0.0009,386.24,0.30,78.8,30.7,138.04,31.73,24.66,36.49,0.94,-26.01,7.28,-49,548,-941,27.2,22.4,3.8,27.1,1.5,-29.4,5.73,2.48,-26.7,30.7
2012-07-28 02:19:00,0.0,1.8891,0.0010,386.18,0.27,65.9,25.8,138.04,31.73,24.65,36.49,0.93,-26.00,7.75,-49,548,-941,27.2,22.7,4.0,27.1,1.5,-29.4,5.73,2.48,-26.7,30.6
2012-07-28 02:20:00,0.0,1.8888,0.0008,386.19,0.33,75.5,32.7,138.04,31.73,24.65,36.50,0.95,-25.99,8.20,-49,548,-941,27.2,22.6,4.0,27.1,1.5,-29.4,5.73,2.47,-26.7,30.6